Regional Weather Roundup
Issued by NWS

Home | Current Version | Previous Version | Graphics & Text | Print | Product List | Glossary On
Versions: 1 2 3 4 5 6 7 8 9 10 11 12 13 14 15 16 17 18 19 20 21 22 23 24 25 26 27 28 29 30 31 32 33 34 35 36 37 38 39 40 41 42 43 44 45 46 47 48 49 50
724
ASUS44 KLIX 221801
RWRLA
LOUISIANA WEATHER ROUNDUP
NATIONAL WEATHER SERVICE NEW ORLEANS LA
100 PM CDT WED OCT 22 2014

NOTE: "FAIR" INDICATES FEW OR NO CLOUDS BELOW 12,000 FEET WITH NO
      SIGNIFICANT WEATHER AND/OR OBSTRUCTIONS TO VISIBILITY.
      SKY/WX - SKY CONDITION AND SIGNIFICANT WEATHER.
      TMP - AIR TEMPERATURE.    DP   - DEWPOINT TEMPERATURE.
      RH  - RELATIVE HUMIDITY.  PRES - PRESSURE.
      HX  - HEAT INDEX.         WCI  - WIND CHILL INDEX.

*  THESE STATIONS ARE NOT NWS OR FAA STATIONS AND ARE NOT UNDER
   NWS QUALITY CONTROL.

LAZ040-048-061>063-065-066-069-221900-
SOUTHEAST LOUISIANA

CITY           SKY/WX    TMP DP  RH WIND       PRES   REMARKS
N.O. AUDUBON     N/A     82  58  44 MISG        N/A
6HR MIN TEMP:  64; 6HR MAX TEMP:  82;

N.O. INTL ARPT FAIR      78  54  43 NE15      30.07F
6HR MIN TEMP:  67; 6HR MAX TEMP:  78;

N.O. LAKEFRONT FAIR      77  56  48 NE10      30.07F
6HR MIN TEMP:  68; 6HR MAX TEMP:  77;

N.O. DOWNTOWN* FAIR      77  54  44 N10       30.07F
6HR MIN TEMP:  64; 6HR MAX TEMP:  79;

SLIDELL        FAIR      78  54  43 NE8       30.07F
6HR MIN TEMP:  52; 6HR MAX TEMP:  78;

BATON ROUGE    FAIR      78  54  43 NE13      30.08F
6HR MIN TEMP:  58; 6HR MAX TEMP:  78;

BOOTHVILLE     FAIR      77  62  59 NE10      30.05F
6HR MIN TEMP:  72; 6HR MAX TEMP:  77;

BELLE CHASSE   FAIR      78  53  41 NE14      30.06F
6HR MIN TEMP:  61; 6HR MAX TEMP:  78;

BOGALUSA*        N/A     80  49  33 NE8       30.10F
6HR MIN TEMP:  52; 6HR MAX TEMP:  80;

NEW ROADS*     FAIR      77  55  46 N5        30.09F
6HR MIN TEMP:  59; 6HR MAX TEMP:  77;

GONZALES*      FAIR      78  56  47 NE8       30.07F
6HR MIN TEMP:  57; 6HR MAX TEMP:  78;

HAMMOND*       NOT AVBL
HOUMA*         SUNNY     79  55  44 NE12      30.06F
PORT FOURCHON* CLEAR     77  59  53 E15G23    30.07F

$$

LAZ041-044-053-054-221900-
SOUTHWEST LOUISIANA

CITY           SKY/WX    TMP DP  RH WIND       PRES   REMARKS
LAKE CHARLES   FAIR      79  57  46 E14       30.09F
6HR MIN TEMP:  59; 6HR MAX TEMP:  79;

LAFAYETTE      FAIR      78  57  48 E6        30.08F
6HR MIN TEMP:  58; 6HR MAX TEMP:  78;

PATTERSON      FAIR      79  57  47 E10       30.09F
6HR MIN TEMP:  57; 6HR MAX TEMP:  79;

SALT POINT       N/A     79  59  50 VRB7      30.05F
NEW IBERIA     FAIR      80  58  46 NE12      30.08F
6HR MIN TEMP:  62; 6HR MAX TEMP:  80; 6HR PCP: TRACE;

CHENAULT AIRPK NOT AVBL

$$

LAZ027-028-221900-
CENTRAL LOUISIANA

CITY           SKY/WX    TMP DP  RH WIND       PRES   REMARKS
FORT POLK      FAIR      77  57  50 NE8       30.11F
6HR MIN TEMP:  61; 6HR MAX TEMP:  77;

ALEXANDRIA INT FAIR      77  51  40 NE7       30.11F
6HR MIN TEMP:  55; 6HR MAX TEMP:  78;

ALEXANDRIA     FAIR      76  53  44 VRB7      30.13F
6HR MIN TEMP:  52; 6HR MAX TEMP:  77;


$$

LAZ001-002-221900-
NORTHWEST LOUISIANA

CITY           SKY/WX    TMP DP  RH WIND       PRES   REMARKS
SHREVEPORT     FAIR      77  51  40 E12       30.14F
6HR MIN TEMP:  54; 6HR MAX TEMP:  77;

BARKSDALE AFB  FAIR      78  49  36 NE15      30.15F
6HR MIN TEMP:  55; 6HR MAX TEMP:  78;

DTN SHREVEPORT FAIR      76  50  40 N10       30.15F
6HR MIN TEMP:  53; 6HR MAX TEMP:  76;


$$

LAZ014-016-221900-
NORTHEAST LOUISIANA

CITY           SKY/WX    TMP DP  RH WIND       PRES   REMARKS
MONROE         FAIR      76  51  41 N10       30.17F
6HR MIN TEMP:  51; 6HR MAX TEMP:  76;

TALLULAH       FAIR      75  49  39 NE13      30.14F
6HR MIN TEMP:  44; 6HR MAX TEMP:  76;


$$




USA.gov is the U.S. government's official web portal to all federal, state and local government web resources and services.